Location: Newark
(48.6461°N, 4.3644°W)
Time: 22:27:34
(UTC+00:00)

S-56A Canister/Altair - Pass Details

Date: 23 January 2020
Orbit: 633 x 2499 km, 38.9° (Epoch: 19 February)

Event Time Altitude Azimuth Distance (km) Brightness Sun altitude
Rises 00:20:53 0° 256° (WSW) 3,048 - -60.9°
Reaches altitude 10° 00:23:41 10° 241° (WSW) 2,041 - -60.9°
Maximum altitude 00:27:12 23° 189° (S) 1,358 - -61.0°
Drops below altitude 10° 00:30:47 10° 137° (SE) 2,071 - -61.0°
Sets 00:33:39 0° 122° (ESE) 3,107 - -61.0°
